TimeEST,TemperatureF,Dew PointF,Humidity,Sea Level PressureIn,VisibilityMPH,Wind Direction,Wind SpeedMPH,Gust SpeedMPH,PrecipitationIn,Events,Conditions,WindDirDegrees,DateUTC
12:53 AM,21.9,17.1,82,30.16,10.0,Calm,Calm,-,N/A,,Clear,0,2013-02-04 05:53:00
1:53 AM,21.0,16.0,81,30.17,9.0,Calm,Calm,-,N/A,,Clear,0,2013-02-04 06:53:00
2:53 AM,21.0,17.1,85,30.14,7.0,Calm,Calm,-,N/A,,Clear,0,2013-02-04 07:53:00
3:53 AM,19.9,16.0,85,30.13,9.0,Calm,Calm,-,N/A,,Clear,0,2013-02-04 08:53:00
5:53 AM,21.9,18.0,85,30.10,10.0,ESE,3.5,-,N/A,,Overcast,120,2013-02-04 10:53:00
6:53 AM,25.0,18.0,75,30.08,10.0,SSE,4.6,-,N/A,,Overcast,150,2013-02-04 11:53:00
7:53 AM,25.0,17.1,72,30.06,10.0,SSE,6.9,-,N/A,,Overcast,150,2013-02-04 12:53:00
8:53 AM,27.0,19.0,72,30.05,10.0,SSE,9.2,-,N/A,,Overcast,160,2013-02-04 13:53:00
9:53 AM,28.9,21.0,72,30.03,10.0,South,8.1,-,N/A,,Overcast,170,2013-02-04 14:53:00
10:53 AM,33.1,21.9,64,30.00,10.0,South,10.4,17.3,N/A,,Overcast,180,2013-02-04 15:53:00
11:53 AM,36.0,24.1,62,29.97,10.0,South,9.2,-,N/A,,Overcast,180,2013-02-04 16:53:00
12:53 PM,41.0,26.1,55,29.93,10.0,SSW,9.2,-,N/A,,Overcast,200,2013-02-04 17:53:00
1:53 PM,45.0,25.0,46,29.88,10.0,South,10.4,18.4,N/A,,Overcast,190,2013-02-04 18:53:00
2:53 PM,45.0,27.0,49,29.87,10.0,SSW,6.9,-,0.00,Rain,Light Rain,200,2013-02-04 19:53:00
3:53 PM,44.1,33.1,65,29.87,10.0,NNW,4.6,-,0.00,Rain,Light Rain,340,2013-02-04 20:53:00
4:53 PM,41.0,34.0,76,29.88,6.0,North,5.8,-,0.02,Rain,Light Rain,350,2013-02-04 21:53:00
5:53 PM,37.9,36.0,93,29.88,3.0,SSE,4.6,-,0.07,Rain,Rain,150,2013-02-04 22:53:00
6:51 PM,37.4,35.6,93,29.87,8.0,Calm,Calm,-,0.02,,Overcast,0,2013-02-04 23:51:00
6:53 PM,37.9,36.0,93,29.88,8.0,Calm,Calm,-,0.02,,Overcast,0,2013-02-04 23:53:00
7:53 PM,39.0,37.0,93,29.88,8.0,SSW,3.5,-,N/A,,Overcast,200,2013-02-05 00:53:00
8:17 PM,41.0,37.4,87,29.88,9.0,SW,5.8,-,N/A,,Overcast,230,2013-02-05 01:17:00
8:53 PM,43.0,39.9,89,29.90,10.0,WSW,9.2,-,N/A,,Mostly Cloudy,240,2013-02-05 01:53:00
9:53 PM,43.0,39.9,89,29.91,10.0,WSW,5.8,-,N/A,,Overcast,250,2013-02-05 02:53:00
10:53 PM,43.0,39.0,86,29.91,10.0,WSW,5.8,-,N/A,,Overcast,250,2013-02-05 03:53:00
11:53 PM,43.0,39.0,86,29.90,10.0,WSW,8.1,-,N/A,,Overcast,250,2013-02-05 04:53:00